TimeCST,TemperatureF,Dew PointF,Humidity,Sea Level PressureIn,VisibilityMPH,Wind Direction,Wind SpeedMPH,Gust SpeedMPH,PrecipitationIn,Events,Conditions,WindDirDegrees,DateUTC
12:15 AM,32.0,28.4,87,29.90,5.0,SSE,12.7,-,N/A,,Overcast,150,2012-12-09 06:15:00
12:35 AM,32.0,28.4,87,29.88,4.0,SSE,13.8,-,N/A,,Overcast,150,2012-12-09 06:35:00
12:55 AM,32.0,30.2,93,29.89,5.0,SSE,15.0,-,N/A,,Overcast,160,2012-12-09 06:55:00
1:15 AM,33.8,30.2,87,29.89,5.0,SSE,15.0,-,N/A,,Overcast,160,2012-12-09 07:15:00
1:35 AM,33.8,30.2,87,29.89,5.0,SSE,13.8,-,N/A,,Overcast,160,2012-12-09 07:35:00
1:55 AM,33.8,30.2,87,29.89,5.0,SSE,12.7,-,N/A,,Overcast,150,2012-12-09 07:55:00
2:15 AM,33.8,30.2,87,29.89,5.0,SSE,11.5,-,N/A,,Overcast,150,2012-12-09 08:15:00
2:35 AM,33.8,30.2,87,29.89,5.0,SSE,10.4,-,N/A,,Overcast,150,2012-12-09 08:35:00
2:55 AM,33.8,30.2,87,29.89,5.0,SE,11.5,-,N/A,,Overcast,140,2012-12-09 08:55:00
3:15 AM,33.8,30.2,87,29.88,5.0,SE,13.8,-,N/A,,Overcast,140,2012-12-09 09:15:00
3:35 AM,33.8,30.2,87,29.88,5.0,SE,12.7,-,N/A,,Overcast,140,2012-12-09 09:35:00
3:55 AM,33.8,30.2,87,29.86,5.0,SE,13.8,-,N/A,,Overcast,130,2012-12-09 09:55:00
4:15 AM,33.8,30.2,87,29.85,5.0,SE,15.0,-,N/A,,Overcast,130,2012-12-09 10:15:00
4:35 AM,33.8,30.2,87,29.84,3.0,SE,15.0,-,N/A,,Overcast,140,2012-12-09 10:35:00
4:55 AM,33.8,30.2,87,29.84,3.0,SE,13.8,-,N/A,,Overcast,130,2012-12-09 10:55:00
5:15 AM,33.8,30.2,87,29.83,2.5,SE,15.0,-,N/A,,Overcast,130,2012-12-09 11:15:00
5:35 AM,33.8,30.2,87,29.82,2.5,SE,16.1,-,N/A,,Overcast,130,2012-12-09 11:35:00
5:55 AM,33.8,30.2,87,29.82,2.0,SE,16.1,-,N/A,,Overcast,130,2012-12-09 11:55:00
6:15 AM,33.8,30.2,87,29.81,2.5,SE,15.0,-,N/A,,Overcast,130,2012-12-09 12:15:00
6:35 AM,33.8,30.2,87,29.83,3.0,SE,12.7,-,N/A,,Overcast,140,2012-12-09 12:35:00
6:55 AM,33.8,30.2,87,29.82,4.0,SSE,15.0,-,N/A,,Overcast,150,2012-12-09 12:55:00
7:15 AM,33.8,30.2,87,29.82,4.0,SSE,13.8,-,N/A,,Overcast,150,2012-12-09 13:15:00
7:35 AM,33.8,30.2,87,29.82,4.0,SSE,16.1,-,N/A,,Overcast,150,2012-12-09 13:35:00
7:55 AM,33.8,30.2,87,29.80,2.5,SE,17.3,-,N/A,,Overcast,140,2012-12-09 13:55:00
8:15 AM,33.8,30.2,87,29.80,2.5,SSE,13.8,-,N/A,,Overcast,150,2012-12-09 14:15:00
8:35 AM,33.8,30.2,87,29.80,3.0,SSE,17.3,23.0,N/A,,Overcast,150,2012-12-09 14:35:00
8:55 AM,33.8,30.2,87,29.81,3.0,SSE,13.8,-,N/A,,Overcast,150,2012-12-09 14:55:00
9:15 AM,33.8,30.2,87,29.81,3.0,SSE,17.3,-,N/A,,Overcast,150,2012-12-09 15:15:00
9:35 AM,33.8,30.2,87,29.81,3.0,SSE,15.0,-,0.01,,Overcast,160,2012-12-09 15:35:00
9:55 AM,33.8,30.2,87,29.81,3.0,SSE,12.7,-,0.01,,Overcast,160,2012-12-09 15:55:00
10:35 AM,33.8,30.2,87,29.80,4.0,SSE,12.7,-,0.01,,Overcast,160,2012-12-09 16:35:00
10:55 AM,33.8,30.2,87,29.80,3.0,South,11.5,-,0.01,,Overcast,170,2012-12-09 16:55:00
11:15 AM,33.8,30.2,87,29.79,3.0,South,10.4,-,N/A,,Overcast,170,2012-12-09 17:15:00
11:35 AM,33.8,30.2,87,29.78,6.0,South,11.5,-,0.02,,Overcast,190,2012-12-09 17:35:00
11:55 AM,33.8,30.2,87,29.77,10.0,SW,8.1,-,0.02,,Overcast,230,2012-12-09 17:55:00
12:15 PM,32.0,28.4,87,29.77,5.0,WSW,12.7,-,N/A,,Overcast,240,2012-12-09 18:15:00
12:35 PM,30.2,28.4,93,29.76,2.5,WSW,11.5,-,N/A,,Overcast,250,2012-12-09 18:35:00
12:55 PM,30.2,26.6,86,29.76,8.0,WSW,11.5,-,N/A,,Overcast,250,2012-12-09 18:55:00
1:15 PM,30.2,26.6,86,29.76,10.0,WSW,12.7,-,N/A,,Overcast,250,2012-12-09 19:15:00
1:35 PM,30.2,26.6,86,29.76,10.0,WSW,10.4,-,N/A,,Overcast,250,2012-12-09 19:35:00
1:55 PM,28.4,24.8,86,29.75,10.0,WSW,13.8,-,N/A,,Overcast,250,2012-12-09 19:55:00
2:15 PM,28.4,24.8,86,29.76,10.0,WSW,11.5,-,N/A,,Overcast,250,2012-12-09 20:15:00
2:35 PM,28.4,24.8,86,29.75,10.0,WSW,9.2,-,N/A,,Overcast,250,2012-12-09 20:35:00
2:55 PM,28.4,24.8,86,29.76,10.0,WSW,12.7,-,N/A,,Overcast,250,2012-12-09 20:55:00
3:15 PM,26.6,23.0,86,29.76,10.0,WSW,12.7,-,N/A,,Overcast,240,2012-12-09 21:15:00
3:35 PM,26.6,23.0,86,29.76,10.0,WSW,12.7,-,N/A,,Overcast,250,2012-12-09 21:35:00
3:55 PM,26.6,21.2,80,29.77,10.0,West,9.2,-,N/A,,Overcast,260,2012-12-09 21:55:00
4:15 PM,26.6,23.0,86,29.77,10.0,West,11.5,-,N/A,,Overcast,270,2012-12-09 22:15:00
4:35 PM,26.6,23.0,86,29.77,10.0,West,9.2,-,N/A,,Overcast,260,2012-12-09 22:35:00
4:55 PM,28.4,24.8,86,29.78,5.0,NW,19.6,-,N/A,,Overcast,310,2012-12-09 22:55:00
5:15 PM,26.6,24.8,93,29.78,9.0,NW,23.0,31.1,N/A,,Overcast,320,2012-12-09 23:15:00
5:35 PM,26.6,23.0,86,29.78,5.0,NW,23.0,36.8,N/A,,Overcast,320,2012-12-09 23:35:00
5:55 PM,24.8,19.4,80,29.79,3.0,NW,26.5,34.5,N/A,,Overcast,320,2012-12-09 23:55:00
6:15 PM,23.0,19.4,86,29.80,2.0,NW,21.9,33.4,N/A,,Overcast,310,2012-12-10 00:15:00
6:35 PM,19.4,15.8,86,29.81,2.5,NW,27.6,-,N/A,,Overcast,320,2012-12-10 00:35:00
6:55 PM,19.4,15.8,86,29.82,4.0,NW,25.3,36.8,N/A,,Overcast,320,2012-12-10 00:55:00
7:15 PM,17.6,14.0,86,29.83,4.0,NW,25.3,38.0,N/A,,Overcast,320,2012-12-10 01:15:00
7:35 PM,17.6,12.2,79,29.84,3.0,NW,25.3,33.4,N/A,,Overcast,320,2012-12-10 01:35:00
7:55 PM,15.8,12.2,86,29.85,2.5,NW,28.8,36.8,N/A,,Overcast,320,2012-12-10 01:55:00
8:15 PM,-9999,-9999,N/A,29.86,2.5,NW,29.9,39.1,N/A,,Overcast,320,2012-12-10 02:15:00
8:35 PM,15.8,10.4,79,29.87,2.5,NW,26.5,38.0,N/A,,Overcast,320,2012-12-10 02:35:00
8:55 PM,-9999,-9999,N/A,29.87,4.0,NW,28.8,36.8,N/A,,Overcast,320,2012-12-10 02:55:00
9:15 PM,-9999,-9999,N/A,29.87,4.0,NW,31.1,38.0,N/A,,Overcast,320,2012-12-10 03:15:00
9:35 PM,12.2,8.6,85,29.89,4.0,NW,29.9,36.8,N/A,,Overcast,320,2012-12-10 03:35:00
9:55 PM,12.2,6.8,79,29.90,5.0,NW,25.3,33.4,N/A,,Overcast,320,2012-12-10 03:55:00
10:15 PM,12.2,8.6,85,29.91,5.0,NW,26.5,34.5,N/A,,Overcast,320,2012-12-10 04:15:00
10:35 PM,10.4,6.8,85,29.91,3.0,NW,27.6,33.4,N/A,,Overcast,320,2012-12-10 04:35:00
10:55 PM,10.4,5.0,79,29.93,4.0,NW,20.7,33.4,N/A,,Overcast,320,2012-12-10 04:55:00
11:15 PM,10.4,5.0,79,29.93,4.0,NW,27.6,32.2,N/A,,Overcast,320,2012-12-10 05:15:00
11:35 PM,10.4,5.0,79,29.93,4.0,NW,26.5,29.9,N/A,,Overcast,320,2012-12-10 05:35:00
11:55 PM,8.6,3.2,79,29.94,3.0,NW,26.5,31.1,N/A,,Overcast,320,2012-12-10 05:55:00